| time (UTC) | temp C | wind direction | speed KPH | gust KPH | rain 1hr cm | rain 24hr cm | rain mn cm | humidity % | barometer mb |
| 20260504110702 | 7 | 349 | 1.6 | 4.8 | 0.00 | 0.18 | 0.00 | 61 | 988.3 |
| 20260504110202 | 7 | 301 | 1.6 | 3.2 | 0.00 | 0.18 | 0.00 | 62 | 988.3 |
| 20260504100202 | 6 | 0 | 1.6 | 3.2 | 0.00 | 0.18 | 0.00 | 63 | 988.3 |
| 20260504081649 | 7 | 2 | 1.6 | 3.2 | 0.00 | 0.18 | 0.00 | 60 | 988.4 |
| 20260504081153 | 7 | 32 | 1.6 | 3.2 | 0.00 | 0.18 | 0.00 | 59 | 988.4 |
| 20260504080649 | 7 | 37 | 3.2 | 4.8 | 0.00 | 0.18 | 0.00 | 59 | 988.4 |
| 20260504080148 | 6 | 12 | 1.6 | 4.8 | 0.00 | 0.18 | 0.00 | 60 | 988.3 |
| 20260504070132 | 6 | 39 | 0.0 | 1.6 | 0.00 | 0.18 | 0.00 | 63 | 988.4 |
| 20260504060130 | 6 | 341 | 1.6 | 3.2 | 0.00 | 0.18 | 0.00 | 64 | 988.5 |
| 20260504045602 | 7 | 63 | 1.6 | 3.2 | 0.00 | 0.18 | 0.00 | 63 | 988.6 |
| 20260504045102 | 7 | 0 | 1.6 | 3.2 | 0.00 | 0.18 | 0.00 | 63 | 988.6 |
| 20260504044830 | 7 | 357 | 1.6 | 3.2 | 0.00 | 0.18 | 0.00 | 62 | 988.5 |
| 20260504044053 | 7 | 36 | 0.0 | 3.2 | 0.00 | 0.18 | 0.00 | 62 | 988.6 |
| 20260504043553 | 7 | 95 | 1.6 | 3.2 | 0.00 | 0.18 | 0.00 | 64 | 988.6 |
| 20260504043053 | 7 | 333 | 1.6 | 3.2 | 0.00 | 0.18 | 0.00 | 61 | 988.5 |
| 20260504042831 | 7 | 36 | 1.6 | 3.2 | 0.00 | 0.18 | 0.00 | 60 | 988.4 |
| 20260504042330 | 6 | 24 | 1.6 | 3.2 | 0.00 | 0.18 | 0.00 | 62 | 988.4 |
| 20260504041552 | 6 | 17 | 0.0 | 3.2 | 0.00 | 0.18 | 0.00 | 62 | 988.3 |
| 20260504041052 | 6 | 0 | 1.6 | 4.8 | 0.00 | 0.18 | 0.00 | 63 | 988.3 |
| 20260504040924 | 6 | 59 | 0.0 | 3.2 | 0.00 | 0.18 | 0.00 | 62 | 988.2 |
| 20260504040620 | 7 | 334 | 1.6 | 4.8 | 0.00 | 0.18 | 0.00 | 62 | 988.2 |
| 20260504035552 | 7 | 348 | 0.0 | 1.6 | 0.00 | 0.18 | 0.18 | 63 | 988.3 |
| 20260504035052 | 7 | 0 | 0.0 | 3.2 | 0.00 | 0.18 | 0.18 | 64 | 988.2 |
| 20260504034555 | 7 | 0 | 1.6 | 3.2 | 0.00 | 0.18 | 0.18 | 61 | 988.1 |
| 20260504034052 | 7 | 46 | 1.6 | 4.8 | 0.00 | 0.18 | 0.18 | 62 | 988.2 |
| 20260504033552 | 7 | 5 | 1.6 | 4.8 | 0.00 | 0.18 | 0.18 | 63 | 988.2 |
| 20260504033131 | 7 | 0 | 1.6 | 3.2 | 0.00 | 0.18 | 0.18 | 63 | 988.0 |
| 20260504033118 | 7 | 0 | 0.0 | 3.2 | 0.00 | 0.18 | 0.18 | 64 | 988.2 |
| 20260504032337 | 7 | 110 | 1.6 | 4.8 | 0.00 | 0.18 | 0.18 | 61 | 987.9 |
| 20260504031552 | 7 | 349 | 1.6 | 4.8 | 0.00 | 0.18 | 0.18 | 60 | 987.9 |
| 20260504031332 | 7 | 356 | 1.6 | 4.8 | 0.00 | 0.18 | 0.18 | 60 | 987.9 |
| 20260504030546 | 7 | 61 | 1.6 | 3.2 | 0.00 | 0.18 | 0.18 | 60 | 987.9 |
| 20260504030042 | 7 | 7 | 1.6 | 3.2 | 0.00 | 0.18 | 0.18 | 60 | 987.9 |
| 20260504025542 | 7 | 48 | 1.6 | 3.2 | 0.00 | 0.18 | 0.18 | 60 | 987.9 |
| 20260504025040 | 7 | 56 | 1.6 | 3.2 | 0.00 | 0.18 | 0.18 | 60 | 987.9 |
| 20260504024542 | 7 | 25 | 0.0 | 3.2 | 0.00 | 0.18 | 0.18 | 60 | 987.9 |
| 20260504024326 | 7 | 53 | 1.6 | 3.2 | 0.00 | 0.18 | 0.18 | 59 | 987.9 |
| 20260504023541 | 7 | 68 | 1.6 | 3.2 | 0.00 | 0.18 | 0.18 | 59 | 987.9 |
| 20260504023041 | 7 | 12 | 1.6 | 3.2 | 0.00 | 0.18 | 0.18 | 59 | 988.0 |
| 20260504022826 | 7 | 24 | 1.6 | 3.2 | 0.00 | 0.18 | 0.18 | 59 | 988.0 |
| 20260504022327 | 8 | 15 | 1.6 | 3.2 | 0.00 | 0.18 | 0.18 | 59 | 988.0 |
| 20260504021541 | 8 | 342 | 1.6 | 3.2 | 0.00 | 0.18 | 0.18 | 57 | 988.0 |
| 20260504021037 | 8 | 22 | 1.6 | 3.2 | 0.00 | 0.18 | 0.18 | 58 | 987.9 |
| 20260504020538 | 8 | 9 | 1.6 | 3.2 | 0.00 | 0.18 | 0.18 | 58 | 988.0 |
| 20260504020038 | 8 | 58 | 1.6 | 3.2 | 0.00 | 0.18 | 0.18 | 59 | 988.0 |
| 20260504015538 | 8 | 29 | 1.6 | 3.2 | 0.00 | 0.18 | 0.18 | 59 | 988.0 |
| 20260504015119 | 8 | 29 | 1.6 | 3.2 | 0.00 | 0.18 | 0.18 | 56 | 987.9 |
| 20260504015104 | 8 | 316 | 1.6 | 3.2 | 0.00 | 0.18 | 0.18 | 57 | 988.0 |
| 20260504014038 | 8 | 9 | 3.2 | 4.8 | 0.00 | 0.18 | 0.18 | 56 | 987.8 |
| 20260504013825 | 8 | 23 | 3.2 | 4.8 | 0.00 | 0.18 | 0.18 | 57 | 987.8 |
| 20260504013038 | 8 | 19 | 1.6 | 3.2 | 0.00 | 0.18 | 0.18 | 57 | 987.7 |
| 20260504012538 | 8 | 22 | 1.6 | 3.2 | 0.00 | 0.18 | 0.18 | 56 | 987.7 |
| 20260504012038 | 8 | 29 | 1.6 | 3.2 | 0.00 | 0.18 | 0.18 | 56 | 987.7 |
| 20260504011823 | 8 | 8 | 1.6 | 3.2 | 0.00 | 0.18 | 0.18 | 56 | 987.7 |
| 20260504011321 | 9 | 36 | 1.6 | 3.2 | 0.00 | 0.18 | 0.18 | 54 | 987.6 |
| 20260504010819 | 9 | 11 | 3.2 | 4.8 | 0.00 | 0.18 | 0.18 | 54 | 987.5 |
| 20260504010037 | 9 | 31 | 3.2 | 4.8 | 0.00 | 0.18 | 0.18 | 55 | 987.5 |
| 20260504005537 | 9 | 31 | 1.6 | 3.2 | 0.00 | 0.18 | 0.18 | 54 | 987.5 |
| 20260504005036 | 9 | 0 | 1.6 | 3.2 | 0.00 | 0.18 | 0.18 | 53 | 987.5 |
| 20260504004533 | 9 | 10 | 1.6 | 3.2 | 0.00 | 0.18 | 0.18 | 52 | 987.5 |
| 20260504004033 | 9 | 68 | 1.6 | 3.2 | 0.00 | 0.18 | 0.18 | 53 | 987.4 |
| 20260504003533 | 10 | 50 | 0.0 | 3.2 | 0.00 | 0.18 | 0.18 | 52 | 987.3 |
| 20260504003033 | 10 | 0 | 0.0 | 3.2 | 0.00 | 0.18 | 0.18 | 51 | 987.2 |
| 20260504002817 | 10 | 0 | 0.0 | 3.2 | 0.00 | 0.18 | 0.18 | 50 | 987.1 |
| 20260504002315 | 10 | 0 | 0.0 | 3.2 | 0.00 | 0.18 | 0.18 | 48 | 987.1 |
| 20260504001820 | 11 | 83 | 1.6 | 3.2 | 0.00 | 0.18 | 0.18 | 48 | 987.0 |
| 20260504001033 | 11 | 0 | 1.6 | 3.2 | 0.00 | 0.18 | 0.18 | 47 | 986.9 |
| 20260504000531 | 11 | 40 | 1.6 | 6.4 | 0.15 | 0.18 | 0.18 | 46 | 986.9 |
| 20260504000030 | 12 | 74 | 1.6 | 6.4 | 0.15 | 0.18 | 0.18 | 44 | 986.8 |
| 20260503235529 | 12 | 46 | 1.6 | 6.4 | 0.15 | 0.18 | 0.15 | 44 | 986.8 |
| 20260503235029 | 12 | 55 | 1.6 | 6.4 | 0.15 | 0.18 | 0.15 | 42 | 986.7 |
| 20260503234815 | 12 | 296 | 1.6 | 8.0 | 0.15 | 0.18 | 0.15 | 41 | 986.7 |
| 20260503234316 | 12 | 321 | 3.2 | 8.0 | 0.15 | 0.18 | 0.15 | 41 | 986.7 |
| 20260503233529 | 13 | 0 | 3.2 | 6.4 | 0.15 | 0.18 | 0.15 | 39 | 986.6 |
| 20260503233312 | 13 | 315 | 1.6 | 9.7 | 0.15 | 0.18 | 0.15 | 40 | 986.6 |
| 20260503232528 | 13 | 195 | 3.2 | 9.7 | 0.15 | 0.18 | 0.15 | 38 | 986.6 |
| 20260503232028 | 13 | 309 | 3.2 | 11.3 | 0.15 | 0.18 | 0.15 | 38 | 986.6 |
| 20260503231528 | 13 | 349 | 4.8 | 11.3 | 0.15 | 0.18 | 0.15 | 37 | 986.6 |
| 20260503231314 | 13 | 220 | 4.8 | 11.3 | 0.18 | 0.18 | 0.15 | 37 | 986.6 |
| 20260503230531 | -17 | 0.0 | 0.0 | 0.00 | 0.00 | 0.00 | |||
| 20260503230030 | -17 | 0.0 | 0.0 | 0.00 | 0.00 | 0.00 | |||
| 20260503225532 | -17 | 0.0 | 0.0 | 0.00 | 0.00 | 0.00 | |||
| 20260503225030 | -17 | 0.0 | 0.0 | 0.00 | 0.00 | 0.00 | |||
| 20260503224531 | -17 | 0.0 | 0.0 | 0.00 | 0.00 | 0.00 | |||
| 20260503224029 | -17 | 0.0 | 0.0 | 0.00 | 0.00 | 0.00 | |||
| 20260503223754 | -17 | 0.0 | 0.0 | 0.00 | 0.00 | 0.00 | |||
| 20260503223033 | -17 | 0.0 | 0.0 | 0.00 | 0.00 | 0.00 | |||
| 20260503222531 | -17 | 0.0 | 0.0 | 0.00 | 0.00 | 0.00 | |||
| 20260503222031 | 15 | 0 | 3.2 | 8.0 | 0.00 | 0.00 | 0.00 | 36 | 986.4 |
| 20260503221531 | 15 | 0 | 3.2 | 9.7 | 0.00 | 0.00 | 0.00 | 36 | 986.4 |
| 20260503221030 | 15 | 210 | 3.2 | 9.7 | 0.00 | 0.00 | 0.00 | 35 | 986.4 |
| 20260503220530 | 15 | 311 | 4.8 | 17.7 | 0.00 | 0.00 | 0.00 | 35 | 986.5 |
| 20260503220029 | 15 | 303 | 4.8 | 17.7 | 0.00 | 0.00 | 0.00 | 34 | 986.5 |
| 20260503215812 | 15 | 268 | 4.8 | 14.5 | 0.00 | 0.00 | 0.00 | 33 | 986.5 |
| 20260503215030 | 15 | 54 | 4.8 | 14.5 | 0.00 | 0.00 | 0.00 | 33 | 986.5 |
| 20260503214528 | 15 | 324 | 3.2 | 14.5 | 0.00 | 0.00 | 0.00 | 34 | 986.6 |
| 20260503214109 | 15 | 105 | 3.2 | 9.7 | 0.00 | 0.00 | 0.00 | 34 | 986.5 |
| 20260503214055 | 15 | 269 | 3.2 | 9.7 | 0.00 | 0.00 | 0.00 | 35 | 986.5 |
| 20260503213029 | 14 | 190 | 3.2 | 12.9 | 0.00 | 0.00 | 0.00 | 34 | 986.5 |
| 20260503212529 | 14 | 38 | 4.8 | 12.9 | 0.00 | 0.00 | 0.00 | 35 | 986.5 |
| 20260503212030 | 14 | 294 | 4.8 | 12.9 | 0.00 | 0.00 | 0.00 | 34 | 986.5 |
| 20260503211529 | 14 | 300 | 6.4 | 14.5 | 0.00 | 0.00 | 0.00 | 34 | 986.5 |
| 20260503211029 | 14 | 9 | 4.8 | 14.5 | 0.00 | 0.00 | 0.00 | 33 | 986.3 |
| 20260503210529 | 14 | 309 | 4.8 | 14.5 | 0.00 | 0.00 | 0.00 | 36 | 986.5 |
| 20260503210311 | 13 | 329 | 4.8 | 11.3 | 0.00 | 0.00 | 0.00 | 34 | 986.4 |
| 20260503205525 | 13 | 32 | 4.8 | 11.3 | 0.00 | 0.00 | 0.00 | 35 | 986.4 |
| 20260503205312 | 13 | 103 | 4.8 | 11.3 | 0.00 | 0.00 | 0.00 | 35 | 986.5 |
| 20260503204606 | 14 | 292 | 4.8 | 16.1 | 0.00 | 0.00 | 0.00 | 34 | 986.5 |
| 20260503204550 | 14 | 353 | 4.8 | 14.5 | 0.00 | 0.00 | 0.00 | 35 | 986.4 |
| 20260503203856 | 13 | 303 | 4.8 | 11.3 | 0.00 | 0.00 | 0.00 | 34 | 986.5 |
| 20260503203553 | 13 | 355 | 4.8 | 16.1 | 0.00 | 0.00 | 0.00 | 34 | 986.4 |
| 20260503202809 | 13 | 142 | 6.4 | 12.9 | 0.00 | 0.00 | 0.00 | 36 | 986.6 |
| 20260503202024 | 13 | 316 | 6.4 | 12.9 | 0.00 | 0.00 | 0.00 | 35 | 986.6 |
| 20260503201809 | 13 | 212 | 4.8 | 12.9 | 0.00 | 0.00 | 0.00 | 34 | 986.5 |
| 20260503201020 | 13 | 293 | 4.8 | 12.9 | 0.00 | 0.00 | 0.00 | 35 | 986.7 |
| 20260503200804 | 13 | 105 | 6.4 | 16.1 | 0.00 | 0.00 | 0.00 | 39 | 986.8 |
| 20260503200019 | 13 | 284 | 6.4 | 16.1 | 0.00 | 0.00 | 0.00 | 35 | 986.9 |
| 20260503195520 | 13 | 323 | 4.8 | 17.7 | 0.00 | 0.00 | 0.00 | 35 | 986.8 |
| 20260503195019 | 13 | 355 | 6.4 | 17.7 | 0.00 | 0.00 | 0.00 | 38 | 986.8 |
| 20260503194808 | 13 | 65 | 4.8 | 17.7 | 0.00 | 0.00 | 0.00 | 37 | 986.9 |
| 20260503194308 | 14 | 291 | 3.2 | 17.7 | 0.00 | 0.00 | 0.00 | 39 | 987.1 |
| 20260503193518 | 13 | 296 | 4.8 | 11.3 | 0.00 | 0.00 | 0.00 | 40 | 987.0 |
| 20260503193309 | 13 | 68 | 6.4 | 12.9 | 0.00 | 0.00 | 0.00 | 38 | 987.1 |
| 20260503192518 | 13 | 342 | 6.4 | 17.7 | 0.00 | 0.00 | 0.00 | 40 | 987.1 |
| 20260503192018 | 12 | 230 | 4.8 | 17.7 | 0.00 | 0.00 | 0.00 | 40 | 987.1 |
| 20260503191518 | 12 | 18 | 4.8 | 14.5 | 0.00 | 0.00 | 0.00 | 41 | 987.3 |
| 20260503191017 | 12 | 12 | 4.8 | 19.3 | 0.00 | 0.00 | 0.00 | 41 | 987.4 |
| 20260503190516 | 12 | 266 | 6.4 | 19.3 | 0.00 | 0.00 | 0.00 | 38 | 987.4 |
| 20260503190012 | 12 | 286 | 6.4 | 19.3 | 0.00 | 0.00 | 0.00 | 39 | 987.4 |
| 20260503185802 | 12 | 5 | 6.4 | 14.5 | 0.00 | 0.00 | 0.00 | 38 | 987.5 |
| 20260503185012 | 12 | 13 | 4.8 | 14.5 | 0.00 | 0.00 | 0.00 | 38 | 987.6 |
| 20260503184556 | 12 | 294 | 6.4 | 16.1 | 0.00 | 0.00 | 0.00 | 38 | 987.6 |
| 20260503184541 | 12 | 134 | 4.8 | 16.1 | 0.00 | 0.00 | 0.00 | 40 | 987.6 |
| 20260503183803 | 12 | 336 | 6.4 | 14.5 | 0.00 | 0.00 | 0.00 | 40 | 987.6 |
| 20260503183013 | 12 | 306 | 4.8 | 14.5 | 0.00 | 0.00 | 0.00 | 40 | 987.6 |
| 20260503182514 | 12 | 350 | 4.8 | 12.9 | 0.00 | 0.00 | 0.00 | 41 | 987.6 |
| 20260503182304 | 12 | 119 | 4.8 | 14.5 | 0.00 | 0.00 | 0.00 | 41 | 987.7 |
| 20260503181513 | 12 | 223 | 4.8 | 14.5 | 0.00 | 0.00 | 0.00 | 41 | 987.8 |
| 20260503181011 | 11 | 306 | 4.8 | 14.5 | 0.00 | 0.00 | 0.00 | 40 | 987.7 |
| 20260503180800 | 11 | 51 | 4.8 | 14.5 | 0.00 | 0.00 | 0.00 | 38 | 987.7 |
| 20260503180259 | 11 | 329 | 4.8 | 12.9 | 0.00 | 0.00 | 0.00 | 41 | 987.7 |
| 20260503175508 | 12 | 343 | 4.8 | 12.9 | 0.00 | 0.00 | 0.00 | 39 | 987.7 |
| 20260503175008 | 11 | 138 | 6.4 | 17.7 | 0.00 | 0.00 | 0.00 | 37 | 987.7 |
| 20260503174837 | 11 | 339 | 6.4 | 14.5 | 0.00 | 0.00 | 0.00 | 38 | 987.8 |
| 20260503174832 | 11 | 51 | 6.4 | 17.7 | 0.00 | 0.00 | 0.00 | 38 | 987.8 |
| 20260503173801 | 11 | 356 | 4.8 | 11.3 | 0.00 | 0.00 | 0.00 | 40 | 987.9 |
| 20260503173257 | 11 | 356 | 4.8 | 11.3 | 0.00 | 0.00 | 0.00 | 39 | 987.8 |
| 20260503172507 | 11 | 291 | 4.8 | 11.3 | 0.00 | 0.00 | 0.00 | 40 | 987.9 |
| 20260503172008 | 11 | 222 | 6.4 | 16.1 | 0.00 | 0.00 | 0.00 | 43 | 987.9 |
| 20260503171508 | 11 | 33 | 6.4 | 16.1 | 0.00 | 0.00 | 0.00 | 40 | 988.0 |
| 20260503171006 | 11 | 286 | 4.8 | 16.1 | 0.00 | 0.00 | 0.00 | 38 | 988.0 |
| 20260503170507 | 11 | 348 | 4.8 | 16.1 | 0.00 | 0.00 | 0.00 | 39 | 988.1 |
| 20260503170335 | 11 | 39 | 6.4 | 12.9 | 0.00 | 0.00 | 0.00 | 40 | 988.1 |
| 20260503170328 | 11 | 78 | 6.4 | 16.1 | 0.00 | 0.00 | 0.00 | 41 | 988.1 |
| 20260503151003 | 9 | 36 | 6.4 | 17.7 | 0.00 | 0.00 | 0.00 | 48 | 988.7 |
| 20260503150503 | 8 | 20 | 4.8 | 16.1 | 0.00 | 0.00 | 0.00 | 49 | 988.6 |
| 20260503131003 | 7 | 26 | 4.8 | 12.9 | 0.00 | 0.00 | 0.00 | 59 | 988.6 |
| 20260503130502 | 7 | 111 | 3.2 | 9.7 | 0.00 | 0.00 | 0.00 | 62 | 988.6 |